Regional Weather Roundup
Issued by NWS

Home | Current Version | Previous Version | Graphics & Text | Print | Product List | Glossary On
Versions: 1 2 3 4 5 6 7 8 9 10 11 12 13 14 15 16 17 18 19 20 21 22 23 24 25 26 27 28 29 30 31 32 33 34 35 36 37 38 39 40 41 42 43 44 45 46 47 48 49 50
000
ASUS45 KBOU 012307
RWRCO

WEATHER ROUNDUP FOR COLORADO
NATIONAL WEATHER SERVICE DENVER/BOULDER CO
500 PM MDT MON JUN 01 2015

NOTE: "FAIR" INDICATES FEW OR NO CLOUDS BELOW 12000 FEET WITH NO
SIGNIFICANT WEATHER AND/OR OBSTRUCTIONS TO VISIBILITY.

COZ001>005-013-030-031-020000-
...NORTHWEST COLORADO...

CITY           SKY/WX    TMP DP  RH WIND       PRES   REMARKS
CRAIG          MOSUNNY   82  40  22 SW15      30.00F
HAYDEN         MOSUNNY   72  46  40 SE14      30.05S
MEEKER         MOSUNNY   82  39  21 SW22      30.03F
MOUNT WERNER   NOT AVBL
STEAMBOAT SPGS CLOUDY    65  45  48 E13       30.10S
WALDEN         CLOUDY    59  39  47 SE9       30.23F
$$

COZ006>008-011-020000-
...WEST CENTRAL VALLEYS...

CITY           SKY/WX    TMP DP  RH WIND       PRES   REMARKS
GRAND JUNCTION SUNNY     91  31  11 SW16G26   29.90F
MONTROSE       MOSUNNY   87  31  13 SW18G28   30.02F
EAGLE          TSTM      82  46  28 S10       30.09F
RIFLE          MOSUNNY   87  38  17 W13G22    29.95F
DELTA          MOSUNNY   93  28  10 SW23G29   29.96F
NUCLA          MOSUNNY   86  28  12 SW17G31   30.06F
$$

COZ017>023-064>068-020000-
...SOUTHWEST COLORADO...

CITY           SKY/WX    TMP DP  RH WIND       PRES   REMARKS
DURANGO        MOSUNNY   82  34  17 W10G20    30.13F
CORTEZ         MOSUNNY   84  35  17 S8        30.06F
PAGOSA SPRINGS MOSUNNY   74  31  20 NW7G16    30.22F
TELLURIDE      MOSUNNY   70  29  22 S14G24    30.32S
WOLF CREEK PAS NOT AVBL
$$

COZ009-010-012-014-032>034-037-058>063-020000-
...CENTRAL COLORADO...

CITY           SKY/WX    TMP DP  RH WIND       PRES   REMARKS
ASPEN          PTSUNNY   73  36  25 SE12G22   30.17F
BUENA VISTA    PTSUNNY   68  33  27 S9G17     30.25F
COPPER MTN     PTSUNNY   48  30  49 S14G21    30.51F
BERTHOUD PASS  PTSUNNY   45  37  76 MISG      30.55F
COTTONWOOD PAS NOT AVBL
GUNNISON       PTSUNNY   68  36  30 SW8       30.25R
KREMMLING      PTSUNNY   77  28  16 SW9       30.14F
LEADVILLE      CLOUDY    60  26  27 SE5       30.34F
MONARCH PASS   PTSUNNY   46  32  57 SW21G29   30.64S
SALIDA         PTSUNNY   71  33  24 SW6       30.30R
SUNLIGHT       PTSUNNY   61  32  33 CALM      30.41S
WILKERSON PASS CLOUDY    50  28  43 W5G16     30.48F
$$

COZ069>075-020000-
...SAN LUIS VALLEY/SANGRE DE CRISTO MOUNTAINS...

CITY           SKY/WX    TMP DP  RH WIND       PRES   REMARKS
ALAMOSA        CLOUDY    66  40  38 N16G33    30.24R
LA VETA PASS   PTSUNNY  N/A N/A N/A MISG      30.39S
SAGUACHE       PTSUNNY   64  39  39 SE7       30.29F
$$

COZ035-036-038>040-020000-
...NORTHERN COLORADO FRONT RANGE...

CITY           SKY/WX    TMP DP  RH WIND       PRES   REMARKS
DENVER INTL AP PTSUNNY   78  46  32 SE26G33   30.03S
DMNS CITY PARK   N/A     79  40  24 SE10G21   30.00F
AURORA         NOT AVBL
FRONT RANGE AP PTSUNNY   81  45  28 SE25G35   30.05S
ERIE MUNI ARPT MOSUNNY   78  41  26 SE8       30.00R
BOULDER MUN AP MOSUNNY   79  41  25 S6        30.01R
CENTENNIAL     MOSUNNY   76  45  33 SE16      30.05F
BROOMFIELD     PTSUNNY   77  43  29 S13G23    30.03F
FORT COLLINS   PTSUNNY   77  46  33 S6        29.98R
LONGMONT       PTSUNNY   81  49  32 CALM      30.02R
$$

COZ041-046-047-076>085-087-088-020000-
...PIKES PEAK/PALMER DIVIDE AND SOUTHERN FOOTHILLS...

CITY           SKY/WX    TMP DP  RH WIND       PRES   REMARKS
COLO. SPRINGS  PTSUNNY   76  44  32 W16       30.11F
A. F. ACADEMY  NOT AVBL
ELLICOTT       PTSUNNY  N/A N/A N/A NE8       30.10F
FALCON         PTSUNNY   77  38  24 S5        30.16F
FORT CARSON    NOT AVBL
LIMON          LGT RAIN  69  47  45 W17G23    30.10R
MONUMENT HILL  PTSUNNY   68  50  52 N10       30.16F
TRINIDAD       PTSUNNY   75  46  35 S13       30.07S
$$

COZ042>045-048>051-090-091-020000-
...NORTHEAST COLORADO...

CITY           SKY/WX    TMP DP  RH WIND       PRES   REMARKS
GREELEY ARPT   PTSUNNY   81  54  39 S9        29.98R
AKRON          MOSUNNY   78  49  35 SW20G37   30.00R
BURLINGTON     SUNNY     84  58  40 S18       30.00S
WRAY           SUNNY     87  57  36 S15       29.96R
STERLING       SUNNY     86  52  30 S14G23    29.92S
HOLYOKE        NOT AVBL
FORT MORGAN    MOSUNNY  N/A N/A N/A SW16G23   29.97R
$$

COZ086-089-092>099-020000-
...SOUTHEAST COLORADO...

CITY           SKY/WX    TMP DP  RH WIND       PRES   REMARKS
PUEBLO         PTSUNNY   85  44  23 N12       29.97F
LA JUNTA       MOSUNNY   89  47  23 MISG      29.95F
LAMAR          MOSUNNY   88  57  34 SE21G26   29.93S
SPRINGFIELD      N/A     83  57  41 S21G26    30.02R
$$


USA.gov is the U.S. government's official web portal to all federal, state and local government web resources and services.